Location: Clyde
(45.1830°S, 169.3170°E)
Time: 08:33:52
(UTC+13:00)

Cosmos 1933 - Pass Details

Date: 24 January 2019
Orbit: 548 x 564 km, 82.5° (Epoch: 21 February)

Event Time Altitude Azimuth Distance (km) Brightness Sun altitude
Exits shadow 22:58:32 16° 2° (N) 1,510 5.1 -14.2°
Maximum altitude 23:01:45 71° 84° (E) 609 3.3 -14.5°
Drops below altitude 10° 23:05:55 10° 167° (SSE) 1,895 6.5 -15.0°
Sets 23:08:08 0° 169° (SSE) 2,802 7.5 -15.3°
